Header for Extended Forecast Station List Page

Search by: ID | Name | Date | Parm | Value | Avg | % Avg
Sort by: ID | Name | Date | Parm | Value | Avg | % Avg

Enter search or view all records.

Click on id for station plot
#IDNameDateParmValueAvg% Avg
0ABOM8CLARK FORK-ABOVE MISSOULA05-09-2022DISCHARGE (KAF)873103784
1AFRI1SNAKE-AMERICAN FALLS RESERVOIR05-09-2022INFLOW (KAF)1288156083
2ALFW1PEND OREILLE-ALBENI FALLS DAM05-09-2022INFLOW (KAF)83928170103
3ALPW4SNAKE-NEAR ALPINE05-09-2022DISCHARGE (KAF)1560193281
4ANAW1SNAKE-NEAR ANATONE05-09-2022DISCHARGE (KAF)8113949885
5ANTI1HENRYS FORK-AT ST. ANTHONY05-09-2022DISCHARGE (KAF)35948874
6ARAI1SF BOISE-ANDERSON RANCH DAM05-09-2022INFLOW (KAF)27728498
7ARDW1ENTIAT-NEAR ARDENVOIR05-09-2022DISCHARGE (KAF)186162115
8BELM8CLARK FORK-BELOW MISSOULA05-09-2022DISCHARGE (KAF)1829199192
9BERO3MALHEUR-AGENCY VALLEY DAM05-09-2022INFLOW (KAF)102539
10BFEI1KOOTENAI-AT BONNERS FERRY05-09-2022STAGE (FT)MMM
11BFTI1SNAKE-NEAR BLACKFOOT05-09-2022DISCHARGE (KAF)762102674
12BIGI1BOISE-AT GLENWOOD BRIDGE05-09-2022DISCHARGE (KAF)26727497
13BITM8BITTERROOT-NEAR MISSOULA05-09-2022DISCHARGE (KAF)956916104
14BONM8BLACKFOOT-NEAR BONNER05-09-2022DISCHARGE (KAF)49757487
15BONO3COLUMBIA-BONNEVILLE DAM05-09-2022INFLOW (KAF)5203551298101
16BRNI1SNAKE-BROWNLEE DAM05-09-2022INFLOW (KAF)2940343985
17BUDW1BUMPING-BUMPING LAKE DAM05-09-2022INFLOW (KAF)9980124
18BULO3BULLY CREEK-BULLY CREEK DAM05-09-2022INFLOW (KAF)001560
19CABI1CLARK FORK-CABINET GORGE DAM05-09-2022INFLOW (KAF)74837516100
20CFMM8FLATHEAD-AT COLUMBIA FALLS05-09-2022DISCHARGE (KAF)38773488111
21CHDW1CHELAN-LAKE CHELAN DAM05-09-2022INFLOW (KAF)965825117
22CHEI1FALL RIVER-NEAR CHESTER05-09-2022DISCHARGE (KAF)14925559
23CHJW1COLUMBIA-CHIEF JOSEPH DAM05-09-2022INFLOW (KAF)3091829038106
24CIBW1COLUMBIA-AT INTL BOUNDARY05-09-2022DISCHARGE (KAF)3163729917106
25CLFW1NACHES-NEAR CLIFFDEL05-09-2022DISCHARGE (KAF)332267124
26CLUW1CLE ELUM-CLE ELUM LAKE05-09-2022INFLOW (KAF)337270125
27COEI1COEUR D ALENE-COEUR D ALENE LAKE05-09-2022INFLOW (KAF)15511188131
28CSDI1NF PAYETTE-CASCADE DAM05-09-2022INFLOW (KAF)26731385
29DEDI1DEADWOOD-NEAR LOWMAN05-09-2022INFLOW (KAF)829091
30DLGM8CLARK FORK-AT DEER LODGE05-09-2022DISCHARGE (KAF)346354
31DRMM8CLARK FORK-NR DRUMMOND05-09-2022DISCHARGE (KAF)11118560
32DWRI1NF CLEARWATER-DWORSHAK DAM05-09-2022INFLOW (KAF)17771532116
33EASW1YAKIMA-AT EASTON05-09-2022DISCHARGE (KAF)13185154
34EMMI1PAYETTE-NEAR EMMETT05-09-2022DISCHARGE (KAF)67289175
35FCFM8NF FLATHEAD-NEAR COLUMBIA FALLS05-09-2022DISCHARGE (KAF)14671264116
36GCDW1COLUMBIA-GRAND COULEE DAM05-09-2022INFLOW (KAF)3458130418114
37GIBO3UMATILLA-NEAR GIBBON05-09-2022DISCHARGE (KAF)4630153
38HALI1BIG WOOD-AT HAILEY05-09-2022DISCHARGE (KAF)14016187
39HEII1SNAKE-NEAR HEISE05-09-2022DISCHARGE (KAF)2647294190
40HHWM8SF FLATHEAD-HUNGRY HORSE DAM05-09-2022INFLOW (KAF)14831425104
41HODO3HOOD-NEAR TUCKER BRIDGE05-09-2022DISCHARGE (KAF)179142126
42HOPI1PEND OREILLE-PEND OREILLE LAKE NR HOPE05-09-2022LAKE ELEVATION (FT)MMM
43HOTI1BRUNEAU-NEAR HOT SPRINGS05-09-2022DISCHARGE (KAF)4910646
44HWRI1BIG LOST-AT HOWELL RANCH NEAR CHILLY05-09-2022DISCHARGE (KAF)9712578
45IHDW1SNAKE-ICE HARBOR DAM05-09-2022INFLOW (KAF)134981484191
46IPDI1HENRYS FORK-ISLAND PARK DAM05-09-2022INFLOW (KAF)13217177
47JDAO3COLUMBIA-JOHN DAY DAM05-09-2022INFLOW (KAF)5085849501103
48JKSW4SNAKE-NEAR JACKSON05-09-2022DISCHARGE (KAF)1326157084
49JLKW4SNAKE-JACKSON LAKE AT DAM05-09-2022INFLOW (KAF)46462774
50KADW1KACHESS-KACHESS DAM05-09-2022INFLOW (KAF)8262131
51KEDW1YAKIMA-KEECHELUS LAKE05-09-2022INFLOW (KAF)9272128
52KERM8FLATHEAD-SELI’Š KSANKA QLISPE’ DAM05-09-2022INFLOW (KAF)45174181108
53KIOW1YAKIMA-AT KIONA05-09-2022DISCHARGE (KAF)901602150
54LAUW1KETTLE-AT LAURIER05-09-2022DISCHARGE (KAF)1065124885
55LEOI1KOOTENAI-AT LEONIA05-09-2022DISCHARGE (KAF)41184028102
56LGDW1SNAKE-LOWER GRANITE DAM05-09-2022INFLOW (KAF)134451488590
57LGSW1SNAKE-LITTLE GOOSE DAM05-09-2022INFLOW (KAF)134381486390
58LLKW1SPOKANE-AT LONGLAKE05-09-2022INFLOW (KAF)18251507121
59LMNW1SNAKE-LOWER MONUMENTAL DAM05-09-2022INFLOW (KAF)134941483391
60LUCI1BOISE-LUCKY PEAK DAM05-09-2022INFLOW (KAF)1015998102
61LWRI1LITTLE WOOD-LITTLE WOOD DAM05-09-2022INFLOW (KAF)253866
62LYDM8KOOTENAI-LIBBY DAM05-09-2022INFLOW (KAF)55894896114
63MACI1BIG LOST-MACKAY RESERVOIR NEAR MACKAY05-09-2022INFLOW (KAF)9392101
64MAGI1BIG WOOD-MAGIC DAM05-09-2022INFLOW (KAF)9011082
65MCDW1COLUMBIA-MCNARY DAM05-09-2022INFLOW (KAF)4967049361101
66MILI1SNAKE-AT MILNER05-09-2022DISCHARGE (KAF)M49M
67MODO3DESCHUTES-AT MOODY NR BIGGS05-09-2022DISCHARGE (KAF)11681160101
68MONO3NF JOHN DAY-AT MONUMENT05-09-2022DISCHARGE (KAF)22623796
69MYKO3MCKAY CREEK-NEAR PILOT ROCK05-09-2022DISCHARGE (KAF)156252
70NACW1NACHES-NEAR NACHES05-09-2022DISCHARGE (KAF)566393144
71NOXM8CLARK FORK-NOXON RAPIDS DAM05-09-2022INFLOW (KAF)68286843100
72ORFI1CLEARWATER-AT OROFINO05-09-2022DISCHARGE (KAF)33962964115
73OWYO3OWYHEE-OWYHEE DAM05-09-2022INFLOW (KAF)6311654
74PARI1BOISE-NEAR PARMA05-09-2022DISCHARGE (KAF)22223794
75PARW1YAKIMA-NEAR PARKER05-09-2022DISCHARGE (KAF)603336179
76PATW1METHOW-NEAR PATEROS05-09-2022DISCHARGE (KAF)786676116
77PDTO3UMATILLA-AT PENDLETON05-09-2022DISCHARGE (KAF)7847166
78PESW1WENATCHEE-AT PESHASTIN05-09-2022DISCHARGE (KAF)11221043108
79PIHI1PORTNEUF-AT POCATELLO05-09-2022DISCHARGE (KAF)193062
80PITW1KLICKITAT-NEAR PITT05-09-2022DISCHARGE (KAF)383325118
81PLDI1SF SNAKE-PALISADES DAM05-09-2022INFLOW (KAF)2154256384
82PRTI1PRIEST-NEAR PRIEST RIVER05-09-2022DISCHARGE (KAF)48552892
83PRWW1COLUMBIA-PRIEST RAPIDS DAM05-09-2022INFLOW (KAF)3505233161106
84RCCM8ROCK CREEK-NEAR CLINTON05-09-2022DISCHARGE (KAF)229213107
85REXI1HENRYS FORK-AT REXBURG05-09-2022DISCHARGE (KAF)33956260
86RIDI1WILLOW CREEK-RIRIE DAM05-09-2022INFLOW (KAF)152173
87RILW1TIETON-RIMROCK LAKE NEAR RIMROCK05-09-2022INFLOW (KAF)186151123
88RRHW1COLUMBIA-ROCKY REACH DAM05-09-2022INFLOW (KAF)3396632026106
89SATI1ST MARIES-NEAR SANTA05-09-2022DISCHARGE (KAF)455189
90SERO3JOHN DAY-AT SERVICE CK05-09-2022DISCHARGE (KAF)28134083
91SHYI1SNAKE-NEAR SHELLEY05-09-2022DISCHARGE (KAF)1378173979
92SIFI1SNAKE-AB EAGLE ROCK NR IDAHO FALLS05-09-2022DISCHARGE (KAF)1613194083
93SJMI1ST JOE-AT ST MARIES05-09-2022STAGE (FT)MMM
94SNAI1SNAKE-AT BLACKFOOT05-09-2022DISCHARGE (KAF)805106376
95SPDI1CLEARWATER-AT SPALDING05-09-2022DISCHARGE (KAF)53335019106
96SPOW1SPOKANE-AT SPOKANE05-09-2022DISCHARGE (KAF)16391307125
97SRGM8CLARK FORK-AT ST REGIS05-09-2022DISCHARGE (KAF)2495259796
98STRM8ST. REGIS-NEAR ST. REGIS05-09-2022DISCHARGE (KAF)200162124
99SWAI1SNAKE-BELOW SWAN FALLS05-09-2022DISCHARGE (KAF)1489168189
100TCHW1WALLA WALLA-NEAR TOUCHET05-09-2022DISCHARGE (KAF)8148169
101TDAO3COLUMBIA-THE DALLES DAM05-09-2022INFLOW (KAF)5112949697103
102TEAI1TETON-NEAR ST. ANTHONY05-09-2022DISCHARGE (KAF)25132577
103TNAW1TEANAWAY-BELOW FORKS05-09-2022DISCHARGE (KAF)8062130
104TONW1OKANOGAN-NEAR TONASKET05-09-2022DISCHARGE (KAF)14041212116
105TRYO3GRANDE RONDE-TROY05-09-2022DISCHARGE (KAF)71476493
106UMAO3UMATILLA-NEAR UMATILLA05-09-2022DISCHARGE (KAF)12641304
107UMTW1YAKIMA-AT UMTANUM05-09-2022DISCHARGE (KAF)924831111
108UNDW1WHITE SALMON-NEAR UNDERWOOD05-09-2022DISCHARGE (KAF)271233116
109WANW1COLUMBIA-WANAPUM DAM05-09-2022INFLOW (KAF)3508533059106
110WEII1SNAKE-AT WEISER05-09-2022DISCHARGE (KAF)2733313187
111WELW1COLUMBIA-WELLS DAM05-09-2022INFLOW (KAF)3311131084107
112WGCM8MF FLATHEAD-NEAR WEST GLACIER05-09-2022DISCHARGE (KAF)14151199118
113WHBI1SALMON-AT WHITEBIRD05-09-2022DISCHARGE (KAF)4162437595
114WRMO3MALHEUR-WARM SPRINGS DAM05-09-2022INFLOW (KAF)51727
115WSRI1WEISER-NEAR WEISER05-09-2022DISCHARGE (KAF)193184105